Location: Navis
(47.1167°N, 11.5333°E)
Time: 01:31:53
(UTC+00:00)

Daily predictions for brighter satellites

Satellite Brightness Start Highest point End
(mag) Time Altitude Azimuth Time Altitude Azimuth Time Altitude Azimuth
USA 267 3.9 01:43:47 10° NE 01:48:35 50° ENE 01:48:35 50° ENE
Resurs 1-4 Rocket 4.4 01:56:16 10° N 01:57:29 16° N 01:57:29 16° N
CENTAUR R/B 4.0 01:55:33 10° NW 02:03:06 47° NE 02:11:29 10° ESE
Cosmos 2360 Rocket 4.4 02:11:02 10° NNW 02:22:23 - SE 02:12:08 16° NNW
ADEOS II 3.9 02:15:25 10° N 02:17:29 23° N 02:17:29 23° N
IDEFIX/ARIANE 42P 3.8 02:16:41 10° NNE 02:19:41 36° NNE 02:19:41 36° NNE
USA 234 3.3 02:18:34 10° SE 02:24:09 68° SE 02:24:09 68° SE
CZ-4C R/B 4.3 02:25:01 13° SE 02:26:40 15° ESE 02:29:36 10° ENE
Cosmos 1553 Rocket 4.0 02:32:42 77° NNE 02:32:42 77° NNE 02:38:29 10° N
Cosmos 1417 Rocket 4.5 02:35:32 79° ESE 02:35:37 80° E 02:41:59 10° N
Lacrosse 5 2.7 02:40:09 45° E 02:40:09 45° E 02:43:46 10° ESE
Cosmos 2082 Rocket 4.0 02:42:36 21° NNW 02:42:36 21° NNW 02:45:42 10° N
MSX 3.9 02:39:05 10° NNE 02:44:11 70° N 02:44:11 70° N
Cosmos 2333 Rocket 3.2 02:39:40 10° NNW 02:45:14 47° NE 02:50:47 10° SE
Cosmos 2221 3.9 02:53:27 33° N 02:53:27 33° N 02:55:55 10° N
Cosmos 2219 Rocket 3.0 02:54:42 10° NNW 03:00:13 51° ENE 03:05:45 10° SE
CZ-2C R/B 2.6 02:56:51 10° NNE 03:01:33 60° E 03:02:02 57° SE
Cosmos 1606 3.3 03:12:56 57° ENE 03:12:56 57° ENE 03:16:27 10° NNE
Sich 1 4.0 03:08:24 10° N 03:12:41 46° ENE 03:16:54 10° SSE
USA 238 DEB 3.7 03:07:16 10° NW 03:14:32 83° SW 03:22:07 10° SSE
USA 238 3.7 03:07:23 10° NW 03:14:39 83° SW 03:22:13 10° SSE
COSMOS 2428 3.3 03:10:58 10° NNW 03:16:37 57° ENE 03:22:15 10° SE
ATLAS 3B R/B 4.2 03:11:46 10° NNW 03:17:55 33° NNE 03:24:16 10° E
ATLAS 5 CENTAUR R/B 3.2 03:19:18 20° SSE 03:20:52 26° ESE 03:24:28 10° ENE
S3M 3.9 03:21:13 52° WSW 03:22:17 59° WNW 03:28:26 10° N
SeaSat 1 4.1 03:18:40 10° ESE 03:23:04 34° NE 03:27:28 10° NNW
ARIANE 5 R/B 3.4 03:19:43 10° N 03:23:22 33° NW 03:23:22 33° NW
Cosmos 1745 Rocket 4.1 03:19:33 10° NNW 03:25:36 50° W 03:26:31 46° WSW
Helios 1B 4.4 03:25:10 23° SSE 03:27:51 84° WSW 03:32:13 10° NNW
CZ-4C R/B 3.2 03:30:56 67° NE 03:30:56 67° NE 03:34:11 10° N
USA 267 3.6 03:26:55 10° NE 03:33:12 52° NNW 03:35:57 33° WNW
FENGYUN 3A 3.9 03:28:51 10° NNE 03:34:19 70° ESE 03:39:43 10° S
Cosmos 2322 3.6 03:31:34 10° NNW 03:37:15 73° WSW 03:42:53 10° SSE
Cosmos 1709 Rocket 3.9 03:31:07 10° NNW 03:37:27 69° W 03:43:46 10° S
H-2A R/B 2.4 03:37:36 10° SSE 03:41:47 64° ENE 03:45:54 10° N
Cosmos 1151 Rocket 4.4 03:38:34 10° SSE 03:42:35 39° E 03:46:36 10° NNE
NOSS 3-2 (A) 4.2 03:35:49 10° NW 03:43:10 53° WSW 03:51:22 10° SSE
SWAS 4.3 03:40:49 10° NNW 03:45:10 87° WSW 03:49:30 10° SSE
COSMOS 2487 2.9 03:50:12 43° NW 03:50:12 43° NW 03:53:01 10° N
Cosmos 1833 4.4 03:48:29 36° WSW 03:50:18 49° WNW 03:55:47 10° NNE
Cosmos 2344 3.6 03:46:42 30° WSW 03:50:32 62° NW 03:58:38 10° NE
Cosmos 1633 Rocket 3.6 03:46:29 10° N 03:50:51 59° ENE 03:55:09 10° SSE
Geosat 4.0 03:48:52 10° NNE 03:53:56 80° ESE 03:58:04 15° SSW
CENTAUR R/B 3.2 03:46:16 10° NW 03:54:19 64° WSW 04:03:04 10° SSE
Cosmos 2251 Rocket 3.7 03:53:53 32° SW 03:56:11 55° WNW 04:01:29 10° NNE
Cosmos 614 Rocket 3.9 03:54:14 22° SSW 03:57:41 75° WNW 04:02:56 10° NNE
Meteor 1-20 Rocket 4.2 03:53:08 10° NNW 03:58:52 84° W 04:04:40 10° S
Cosmos 2360 Rocket 4.2 04:04:23 11° SSW 04:04:23 11° SSW 04:04:43 10° SSW
IDEFIX/ARIANE 42P 4.3 03:57:52 10° NNW 04:00:30 15° NW 04:00:30 15° NW
ISS -3.8 04:00:41 45° WNW 04:01:35 88° NNE 04:04:57 10° ESE
Cosmos 1933 3.2 03:58:06 13° SSW 04:01:42 82° W 04:05:46 10° N
ALOS 2.2 03:58:06 10° N 04:02:46 68° WNW 04:07:02 12° SSW
CZ-2C R/B 4.2 04:01:46 10° NNW 04:04:14 22° NW 04:04:14 22° NW
Cosmos 2237 Rocket 2.9 04:02:24 10° NNW 04:08:00 55° ENE 04:13:33 10° SE
USA 234 4.0 04:03:08 10° S 04:08:40 29° SW 04:11:34 21° W
Meteor 1-31 Rocket 3.2 04:06:44 10° NNE 04:10:35 64° E 04:14:22 10° S
Iridium 51 3.9 04:07:40 10° N 04:11:28 80° W 04:14:59 10° S
Cosmos 407 Rocket 3.5 04:07:33 10° SSW 04:12:44 86° ESE 04:17:54 10° NNE
CZ-4C R/B 2.0 04:10:13 18° SW 04:14:00 87° NW 04:20:02 10° NE
PSLV R/B 4.2 04:11:18 10° N 04:15:18 35° WNW 04:17:21 23° WSW
USA 276 2.2 04:16:02 34° W 04:17:13 64° NNW 04:20:25 10° ENE
Lacrosse 5 2.7 04:19:24 22° W 04:21:22 28° SW 04:25:39 10° S
NOSS 3-4 (A) 3.4 04:16:30 12° SW 04:22:04 88° NW 04:28:25 10° NE
NOSS 3-4 (C) 3.4 04:16:34 11° SW 04:22:10 89° NW 04:28:32 10° NE
Cosmos 192 4.5 04:19:11 10° NNW 04:23:58 50° WSW 04:28:44 10° S
Cosmos 1190 Rocket 4.1 04:19:04 10° SSW 04:24:23 84° ESE 04:29:43 10° NNE
Cosmos 1328 Rocket 3.5 04:20:21 10° S 04:24:40 89° WNW 04:29:00 10° N
NOSS 3-2 (C) 4.3 04:17:54 10° NW 04:25:10 47° WSW 04:33:14 10° S
Cosmos 1515 Rocket 4.3 04:22:37 10° S 04:26:51 55° E 04:31:09 10° NNE
Cosmos 2227 Rocket 3.8 04:22:14 10° S 04:27:23 37° ESE 04:32:33 10° NE
SJ-12 3.9 04:25:04 10° NNE 04:29:09 87° ESE 04:33:12 10° SSW
Cosmos 2333 Rocket 2.9 04:24:16 10° NW 04:29:20 32° WSW 04:34:23 10° SSW
SL-16 R/B 3.9 04:25:42 10° NNW 04:30:53 34° NE 04:36:02 10° ESE
Cosmos 1484 Rocket 3.3 04:28:56 10° N 04:32:19 34° WNW 04:35:27 11° SW
Cosmos 1437 Rocket 2.8 04:30:20 10° SSW 04:34:21 63° WNW 04:38:21 10° N
Cosmos 1470 Rocket 3.4 04:31:14 10° N 04:35:36 83° W 04:39:54 10° S
CZ-4B R/B 3.7 04:31:41 10° NNE 04:36:11 62° E 04:40:37 10° S
ATLAS 2AS CENTAUR R/B 3.2 04:29:25 10° SSW 04:37:21 82° SE 04:45:10 10° NE
Cosmos 1689 Rocket 4.3 04:35:16 10° SE 04:37:45 28° ENE 04:40:16 10° N
CZ-2C R/B 3.8 04:36:04 10° NNW 04:39:19 19° WNW 04:41:25 14° W
CZ-4B R/B 1.0 04:37:18 10° S 04:40:22 67° WSW 04:43:25 10° NNW
Cosmos 2327 Rocket 4.4 04:34:26 10° N 04:40:34 87° W 04:46:39 10° S
COSMO-SKYMED 1 2.5 04:37:01 10° S 04:41:19 62° W 04:45:38 10° NNW
deb Chang Zheng 4 4.2 04:37:33 10° NNE 04:41:49 60° ESE 04:46:04 10° S
Envisat 4.0 04:37:01 10° NNE 04:42:00 52° E 04:46:56 10° S
Cosmos 2297 Rocket 2.8 04:36:54 10° S 04:42:26 60° ESE 04:48:00 10° NNE
Cosmos 2219 Rocket 3.0 04:39:08 10° NW 04:43:54 28° WSW 04:48:39 10° SSW
Cosmos 1782 2.9 04:40:27 10° SSW 04:44:17 51° WNW 04:48:11 10° N
NOSS 7 (H) 4.4 04:42:55 10° SSW 04:46:22 73° SE 04:49:18 10° NE
Cosmos 1295 Rocket 4.5 04:40:37 10° N 04:46:45 89° E 04:52:50 10° S
Sich 1 4.4 04:46:56 10° NW 04:49:59 18° W 04:52:59 10° SW
Cosmos 1140 Rocket 3.6 04:45:06 10° SW 04:50:12 55° WNW 04:55:19 10° NNE
Cosmos 1500 3.1 04:48:51 10° NNW 04:52:37 65° W 04:56:24 10° S
Cosmos 1980 3.7 04:47:17 10° NNW 04:52:55 68° WSW 04:58:32 10° SSE
Meteor 1-26 Rocket 4.5 04:47:33 10° SSW 04:53:10 53° WNW 04:58:58 10° N
ERS-2 2.6 04:51:07 10° SSE 04:54:42 66° ENE 04:58:20 10° N
Cosmos 1933 Rocket 3.5 04:51:33 10° NNW 04:56:01 77° W 05:00:28 10° S
Cosmos 2074 Rocket 4.3 04:52:21 10° NNW 04:58:09 43° W 05:03:56 10° SSW
SeaSat 1 2.8 04:55:48 10° S 05:00:28 43° WSW 05:05:11 10° NW
COSMOS 2428 3.7 04:55:56 10° NW 05:00:30 25° WSW 05:05:03 10° SSW
MOS 1 Rocket 3.7 04:56:30 10° SSW 05:00:36 37° W 05:04:56 10° NNW
Cosmos 2228 Rocket 3.9 04:56:41 10° S 05:01:10 58° E 05:05:39 10° NNE
BREEZE M DEB (TANK) 3.0 04:59:41 10° WNW 05:02:40 70° SSW 05:11:43 10° ESE
BREEZE-M DEB (TANK) 2.6 05:01:07 10° WNW 05:04:59 52° N 05:07:11 10° E
YAOGAN 6 2.5 05:01:40 10° NNE 05:05:11 87° ESE 05:08:40 10° SSW
ATLAS 5 CENTAUR R/B 2.1 05:01:24 10° WSW 05:05:13 40° NW 05:09:35 10° NNE
Cosmos 2154 Rocket 4.1 04:59:38 10° NNW 05:05:43 57° W 05:11:49 10° S
ADEOS 4.1 05:03:45 10° N 05:08:35 39° WNW 05:13:24 10° SW
ATLAS 3B R/B 2.8 05:02:22 10° NW 05:09:22 84° SW 05:16:41 10° SSE
Okean O Rocket 4.4 05:06:44 10° NE 05:10:24 25° E 05:14:03 10° SSE
